星链-31482 (STARLINK-31482 )

导读 | 豆包AI

STARLINK-31482是美国SpaceX星链互联网卫星星座的一员,于2024年4月10日发射入轨。星链项目旨在为全球提供高速低延迟互联网覆盖,该卫星延续了星链星座标准化设计,运行于近地轨道,进一步扩充了星链星座的服务容量,助力全球网络覆盖能力提升。

基本信息
目录编号:
59461
目录名称:
STARLINK-31482
国际标识:
2024-068G
轨道中心:
EARTH
卫星名称:
星链-31482
卫星全名:
星链-31482 (STARLINK-31482 )
卫星状态:
已陨落 最后检测时间 2024-08-10
发射日期:
2024-04-10 UTC
国别 :
美国 (US)
星等 :
--
轨道信息
数据来源 国际轨道数据
星历时间: 2024-08-10T13:26:59+0800
轨道信息已过期582天
半长轴: 6560.7km
偏心率: 0.0005908
轨道倾角: 42.973°
近地点辐角 298.888°
升交点赤经 30.106°
平近点角 187.134°
近地点: 178.688km
远地点: 186.442km
周期: 88.142分钟
每日圈数: 16.337196
详细信息
固有亮度:
5
最大亮度:
1.5
卫星平台:
Starlink v2.0 mini
覆盖范围:
全球
运营商:
太空探索技术公司
运营商所在国:
美国
制造商(研发单位):
太空探索技术公司
制造商所在国:
美国
使用方式:
暂无
卫星简介
星链(Starlink)计划是由太空探索技术公司(SpaceX)提出的一个巨型低轨卫星互联网星座项目,计划在2019年至2024年间在太空搭建由约1.2万颗卫星组成的“星链”网络,其中1584颗将部署在地球上空550千米处的近地轨道,并从2020年开始工作。该卫星仍在工作。